• In Czech Republic
  • List of Countries
  • For 7 days
  • Water Temperature
  • Satellite Maps
  • Weather Map
  • Weather Widgets
  • user-avatar
    Login

    Hourly Weather Yulara

    Today, 29 June, Thursday

    Time Temperature Precipitation Wind Pressure Humidity
    00:00 +10°C° 0 mm 6 mps 725 mmHg 64%
    01:00 +9°C° 0 mm 6 mps 725 mmHg 65%
    02:00 +9°C° 0 mm 5 mps 725 mmHg 67%
    03:00 +8°C° 0 mm 5 mps 725 mmHg 69%
    04:00 +8°C° 0 mm 6 mps 726 mmHg 71%
    05:00 +8°C° 0 mm 6 mps 726 mmHg 72%
    06:00 +7°C° 0 mm 6 mps 726 mmHg 74%
    07:00 +8°C° 0 mm 7 mps 726 mmHg 72%
    08:00 +7°C° 0 mm 8 mps 726 mmHg 71%
    09:00 +9°C° 0 mm 8 mps 727 mmHg 68%
    10:00 +10°C° 0 mm 8 mps 727 mmHg 61%
    11:00 +11°C° 0 mm 8 mps 727 mmHg 54%
    12:00 +12°C° 0 mm 9 mps 726 mmHg 47%
    13:00 +13°C° 0 mm 9 mps 726 mmHg 43%
    14:00 +13°C° 0 mm 9 mps 726 mmHg 39%
    15:00 +15°C° 0 mm 8 mps 725 mmHg 36%
    16:00 +13°C° 0 mm 8 mps 725 mmHg 39%
    17:00 +12°C° 0 mm 7 mps 725 mmHg 42%
    18:00 +11°C° 0 mm 6 mps 725 mmHg 45%
    19:00 +10°C° 0 mm 6 mps 726 mmHg 49%
    20:00 +10°C° 0 mm 6 mps 726 mmHg 52%
    21:00 +9°C° 0 mm 6 mps 726 mmHg 56%
    22:00 +8°C° 0 mm 6 mps 726 mmHg 59%
    23:00 +8°C° 0 mm 6 mps 726 mmHg 62%

    Tomorrow, 30 June, Friday

    Time Temperature Precipitation Wind Pressure Humidity
    00:00 +8°C° 0 mm 6 mps 726 mmHg 65%
    01:00 +7°C° 0 mm 6 mps 726 mmHg 68%
    02:00 +7°C° 0 mm 6 mps 726 mmHg 70%
    03:00 +6°C° 0 mm 5 mps 726 mmHg 73%
    04:00 +6°C° 0 mm 5 mps 725 mmHg 75%
    05:00 +6°C° 0 mm 5 mps 725 mmHg 77%
    06:00 +6°C° 0 mm 5 mps 725 mmHg 79%
    07:00 +5°C° 0 mm 6 mps 725 mmHg 74%
    08:00 +6°C° 0 mm 7 mps 725 mmHg 70%
    09:00 +7°C° 0 mm 8 mps 726 mmHg 66%
    10:00 +9°C° 0 mm 7 mps 725 mmHg 59%
    11:00 +11°C° 0 mm 7 mps 725 mmHg 51%
    12:00 +14°C° 0 mm 7 mps 724 mmHg 44%
    13:00 +14°C° 0 mm 7 mps 724 mmHg 40%
    14:00 +15°C° 0 mm 6 mps 723 mmHg 37%
    15:00 +16°C° 0 mm 6 mps 722 mmHg 34%
    16:00 +15°C° 0 mm 5 mps 722 mmHg 36%
    17:00 +14°C° 0 mm 4 mps 722 mmHg 39%
    18:00 +13°C° 0 mm 4 mps 722 mmHg 41%
    19:00 +13°C° 0 mm 4 mps 722 mmHg 43%
    20:00 +12°C° 0 mm 4 mps 722 mmHg 45%
    21:00 +11°C° 0 mm 4 mps 723 mmHg 47%
    22:00 +11°C° 0 mm 4 mps 723 mmHg 49%
    23:00 +9°C° 0 mm 5 mps 722 mmHg 51%

    Day after tomorrow, 1 July, Saturday

    Time Temperature Precipitation Wind Pressure Humidity
    00:00 +9°C° 0 mm 5 mps 722 mmHg 52%
    01:00 +8°C° 0 mm 5 mps 722 mmHg 54%
    02:00 +8°C° 0 mm 4 mps 722 mmHg 57%
    03:00 +7°C° 0 mm 4 mps 722 mmHg 59%
    04:00 +7°C° 0 mm 4 mps 722 mmHg 60%
    05:00 +6°C° 0 mm 4 mps 722 mmHg 62%
    06:00 +7°C° 0 mm 3 mps 722 mmHg 64%
    07:00 +8°C° 0 mm 3 mps 722 mmHg 61%
    08:00 +8°C° 0 mm 4 mps 722 mmHg 57%
    09:00 +8°C° 0 mm 4 mps 722 mmHg 54%
    10:00 +11°C° 0 mm 3 mps 722 mmHg 47%
    11:00 +13°C° 0 mm 3 mps 722 mmHg 41%
    12:00 +16°C° 0 mm 3 mps 721 mmHg 34%
    13:00 +17°C° 0 mm 3 mps 720 mmHg 32%
    14:00 +17°C° 0 mm 2 mps 720 mmHg 29%
    15:00 +18°C° 0 mm 2 mps 719 mmHg 27%
    16:00 +17°C° 0 mm 2 mps 719 mmHg 30%
    17:00 +16°C° 0 mm 1 mps 719 mmHg 33%
    18:00 +15°C° 0 mm 1 mps 719 mmHg 36%
    19:00 +15°C° 0 mm 1 mps 719 mmHg 38%
    20:00 +14°C° 0 mm 1 mps 719 mmHg 39%
    21:00 +13°C° 0 mm 1 mps 720 mmHg 41%
    22:00 +13°C° 0 mm 1 mps 719 mmHg 40%
    23:00 +13°C° 0 mm 2 mps 719 mmHg 39%

    2 July, Sunday

    Time Temperature Precipitation Wind Pressure Humidity
    00:00 +13°C° 0 mm 2 mps 719 mmHg 39%
    01:00 +13°C° 0 mm 2 mps 719 mmHg 39%
    02:00 +12°C° 0 mm 3 mps 719 mmHg 40%
    03:00 +11°C° 0 mm 3 mps 719 mmHg 40%
    04:00 +11°C° 0 mm 3 mps 718 mmHg 42%
    05:00 +11°C° 0 mm 3 mps 718 mmHg 44%
    06:00 +11°C° 0 mm 3 mps 718 mmHg 46%
    07:00 +12°C° 0 mm 3 mps 719 mmHg 45%
    08:00 +13°C° 0 mm 4 mps 719 mmHg 45%
    09:00 +14°C° 0 mm 4 mps 719 mmHg 44%
    10:00 +16°C° 0 mm 5 mps 719 mmHg 40%
    11:00 +19°C° 0 mm 6 mps 719 mmHg 36%
    12:00 +21°C° 0 mm 7 mps 719 mmHg 32%
    13:00 +21°C° 0 mm 7 mps 719 mmHg 32%
    14:00 +22°C° 0 mm 8 mps 718 mmHg 31%
    15:00 +22°C° 0 mm 8 mps 718 mmHg 30%
    16:00 +21°C° 0 mm 7 mps 718 mmHg 34%
    17:00 +20°C° 0 mm 6 mps 718 mmHg 37%
    18:00 +19°C° 0 mm 4 mps 718 mmHg 40%
    19:00 +17°C° 0 mm 4 mps 719 mmHg 44%
    20:00 +15°C° 0 mm 4 mps 720 mmHg 47%
    21:00 +14°C° 0 mm 4 mps 720 mmHg 50%
    22:00 +13°C° 0 mm 5 mps 721 mmHg 51%
    23:00 +13°C° 0 mm 5 mps 721 mmHg 51%

    3 July, Monday

    Time Temperature Precipitation Wind Pressure Humidity
    00:00 +12°C° 0 mm 5 mps 721 mmHg 51%
    01:00 +11°C° 0 mm 4 mps 721 mmHg 52%
    02:00 +10°C° 0 mm 4 mps 721 mmHg 52%
    03:00 +10°C° 0 mm 4 mps 721 mmHg 52%
    04:00 +9°C° 0 mm 3 mps 721 mmHg 53%
    05:00 +9°C° 0 mm 3 mps 721 mmHg 53%
    06:00 +8°C° 0 mm 3 mps 721 mmHg 53%
    07:00 +9°C° 0 mm 3 mps 722 mmHg 50%
    08:00 +10°C° 0 mm 3 mps 722 mmHg 46%
    09:00 +10°C° 0 mm 3 mps 723 mmHg 43%
    10:00 +12°C° 0 mm 3 mps 722 mmHg 40%
    11:00 +13°C° 0 mm 3 mps 722 mmHg 37%
    12:00 +14°C° 0 mm 3 mps 722 mmHg 34%
    13:00 +16°C° 0 mm 3 mps 721 mmHg 34%
    14:00 +17°C° 0 mm 2 mps 720 mmHg 33%
    15:00 +18°C° 0 mm 2 mps 720 mmHg 32%
    16:00 +18°C° 0 mm 2 mps 720 mmHg 34%
    17:00 +17°C° 0 mm 2 mps 720 mmHg 37%
    18:00 +16°C° 0 mm 2 mps 720 mmHg 39%
    19:00 +14°C° 0 mm 3 mps 720 mmHg 40%
    20:00 +14°C° 0 mm 3 mps 721 mmHg 41%
    21:00 +13°C° 0 mm 3 mps 721 mmHg 43%
    22:00 +13°C° 0 mm 3 mps 721 mmHg 44%
    23:00 +12°C° 0 mm 3 mps 721 mmHg 45%

    4 July, Tuesday

    Time Temperature Precipitation Wind Pressure Humidity
    00:00 +12°C° 0 mm 4 mps 720 mmHg 46%
    01:00 +11°C° 0 mm 4 mps 720 mmHg 47%
    02:00 +11°C° 0 mm 4 mps 720 mmHg 48%
    03:00 +10°C° 0 mm 4 mps 720 mmHg 49%
    04:00 +10°C° 0 mm 4 mps 720 mmHg 50%
    05:00 +10°C° 0 mm 3 mps 720 mmHg 51%
    06:00 +9°C° 0 mm 3 mps 720 mmHg 52%
    07:00 +10°C° 0 mm 3 mps 720 mmHg 49%
    08:00 +11°C° 0 mm 3 mps 720 mmHg 46%
    09:00 +13°C° 0 mm 2 mps 721 mmHg 44%
    10:00 +15°C° 0 mm 2 mps 720 mmHg 41%
    11:00 +17°C° 0 mm 2 mps 720 mmHg 38%
    12:00 +19°C° 0 mm 2 mps 719 mmHg 35%
    13:00 +20°C° 0 mm 2 mps 719 mmHg 34%
    14:00 +22°C° 0 mm 3 mps 718 mmHg 34%
    15:00 +23°C° 0 mm 4 mps 718 mmHg 34%
    16:00 +22°C° 0 mm 3 mps 718 mmHg 37%
    17:00 +21°C° 0 mm 2 mps 718 mmHg 41%
    18:00 +20°C° 0 mm 2 mps 718 mmHg 45%
    19:00 +19°C° 0 mm 2 mps 718 mmHg 46%
    20:00 +19°C° 0 mm 2 mps 718 mmHg 47%
    21:00 +18°C° 0 mm 2 mps 719 mmHg 48%
    22:00 +18°C° 0 mm 2 mps 719 mmHg 48%
    23:00 +17°C° 0 mm 3 mps 718 mmHg 48%
    Show more